Regional Weather Roundup
Issued by NWS Kansas City/Pleasant Hill, MO

Home | Current Version | Previous Version | Graphics & Text | Print | Product List | Glossary Off
Versions: 1 2 3 4 5 6 7 8 9 10 11 12 13 14 15 16 17 18 19 20 21 22 23 24 25 26 27 28 29 30 31 32 33 34 35 36 37 38 39 40 41 42 43 44 45 46 47 48 49 50

000
ASUS43 KEAX 281410
RWREAX

WEATHER ROUNDUP FOR EASTERN KANSAS AND NORTHWEST MISSOURI
NATIONAL WEATHER SERVICE KANSAS CITY/PLEASANT HILL MO
800 AM CST FRI NOV 28 2014

KSZ040-057-103>105-MOZ028-029-037-043-281500-
...KANSAS CITY METROPOLITAN AREA...

CITY           SKY/WX    TMP DP  RH WIND       PRES   REMARKS
K.C. INTL      MOCLDY    36  25  64 S15       29.99S WCI  27
K.C. DOWNTOWN  CLEAR     38  25  59 SW10      30.01F WCI  31
LEES SUMMIT    FAIR      35  25  66 S13       30.01F WCI  26
OLATHE - IXD   CLEAR     35  26  69 S12       30.01F WCI  27
OLATHE - OJC   CLEAR     36  26  67 S14       30.00F WCI  27
LAWRENCE       CLEAR     35  25  66 S7        30.01F WCI  29

$$

MOZ001>008-011>017-020>025-030>033-038>040-044>046-053-054-281500-
...NORTHERN AND CENTRAL MISSOURI...

CITY           SKY/WX    TMP DP  RH WIND       PRES   REMARKS
ST. JOSEPH     CLEAR     32  25  75 S7        29.98F WCI  26
MOSBY          SUNNY     34  27  75 SE3       30.02F
WARRENSBURG    CLEAR     36  27  69 S10G16    30.05S WCI  28
WHITEMAN AFB   CLEAR     35  26  70 SW14      30.04F WCI  26
CLINTON        CLEAR     37  28  70 S9        30.07F WCI  31
SEDALIA        CLEAR     38  26  62 S17G26    30.05F WCI  28
WARSAW         NOT AVBL
MARSHALL       CLEAR     36  28  75 S8        30.06F WCI  29
CHILLICOTHE      N/A     31  24  75 S6        30.03F WCI  25
KIRKSVILLE     CLEAR     27  23  85 S10       30.05F WCI  17

$$

MOZ041-047>049-056>058-063>065-088>090-097-281500-
...EASTERN AND SOUTHERN MISSOURI...

CITY           SKY/WX    TMP DP  RH WIND       PRES   REMARKS
ST. LOUIS INTL PTCLDY    30  25  81 SE9       30.22F HAZE    WCI  22
SPIRIT OF STL  CLEAR     28  25  88 CALM      30.21F
COLUMBIA       CLEAR     31  25  78 SE10      30.11F WCI  22
JEFFERSON CITY CLEAR     33  25  72 E7        30.14F WCI  27
MEXICO         CLEAR     32  30  93 S10       30.11F WCI  24
ROLLA          CLEAR     34  25  69 S14       30.14F WCI  25
LEBANON        CLEAR     36  27  69 S12G17    30.14S WCI  27
OSAGE BEACH    CLEAR     36  25  64 SE10      30.13S WCI  28
SPRINGFIELD    CLEAR     35  25  66 S17       30.13F WCI  25
BRANSON        CLEAR     37  27  65 SE9       30.19F WCI  31
NEVADA         CLEAR     39  28  65 S13       30.06F WCI  32
JOPLIN         CLEAR     42  26  53 S21G29    30.09F WCI  33
WEST PLAINS    CLEAR     30  25  81 S10       30.23F WCI  21

$$

IAZ060-094-KSZ022-034>040-054-083-096-NEZ052-066-093-281500-
...KANSAS...SOUTHEAST NEBRASKA AND IOWA...

CITY           SKY/WX    TMP DP  RH WIND       PRES   REMARKS
TOPEKA         CLEAR     37  25  61 S7        29.99F WCI  32
MANHATTAN      CLEAR     35  26  69 SW9       29.94F WCI  28
EMPORIA        CLEAR     32  24  72 S14       29.98F WCI  22
CHANUTE        CLEAR     39  28  64 S16       30.04F WCI  30
WICHITA        PTCLDY    36  27  69 S8        30.00F WCI  30
OMAHA          MOCLDY    28  23  81 SE10      29.90F WCI  19
LINCOLN        CLEAR     25  19  78 CALM      29.89F
FALLS CITY     PTCLDY    28  23  81 S8        29.93F WCI  20
LAMONI         CLEAR     26  22  84 S6        29.97F WCI  19
DES MOINES     MOCLDY    21  16  81 S14       29.96F WCI   8

$$




USA.gov is the U.S. government's official web portal to all federal, state and local government web resources and services.